When you browse on this site, cookies collect data to enhance your experience and personalize the content and advertising you see.
Visit our Privacy Policy to learn more. By continuing to use the site, you agree to this use of cookies and data.
  • In Romania
  • List of Countries
  • For 7 days
  • Water Temperature
  • Satellite Maps
  • Weather Map
  • Weather Widgets
  • user-avatar
    Login

    Hourly Weather Ramushki

    Today, 25 March, Monday

    Time Temperature Precipitation Wind Pressure Humidity
    00:00 -2°C° 0.5 mm 6 mps 750 mmHg 95%
    01:00 -2°C° 1.5 mm 6 mps 749 mmHg 96%
    02:00 0°C° 1.5 mm 5 mps 747 mmHg 97%
    03:00 0°C° 1.5 mm 5 mps 746 mmHg 98%
    04:00 0°C° 0.4 mm 5 mps 745 mmHg 96%
    05:00 -1°C° 0.4 mm 5 mps 745 mmHg 93%
    06:00 -1°C° 0.4 mm 5 mps 744 mmHg 91%
    07:00 -2°C° 0.1 mm 6 mps 744 mmHg 91%
    08:00 -2°C° 0.1 mm 6 mps 744 mmHg 91%
    09:00 -2°C° 0.1 mm 7 mps 744 mmHg 90%
    10:00 -2°C° 0.2 mm 7 mps 744 mmHg 89%
    11:00 -2°C° 0.2 mm 8 mps 745 mmHg 88%
    12:00 -1°C° 0.2 mm 9 mps 745 mmHg 87%
    13:00 -3°C° 0.2 mm 9 mps 746 mmHg 86%
    14:00 -2°C° 0.2 mm 8 mps 747 mmHg 85%
    15:00 -2°C° 0.2 mm 8 mps 747 mmHg 84%
    16:00 -2°C° 0.1 mm 7 mps 748 mmHg 85%
    17:00 -2°C° 0.1 mm 7 mps 749 mmHg 86%
    18:00 -2°C° 0.1 mm 6 mps 749 mmHg 87%
    19:00 -2°C° 0.1 mm 6 mps 750 mmHg 87%
    20:00 -2°C° 0.1 mm 6 mps 751 mmHg 86%
    21:00 -2°C° 0.1 mm 6 mps 752 mmHg 85%
    22:00 -3°C° 0 mm 6 mps 752 mmHg 86%
    23:00 -3°C° 0 mm 6 mps 753 mmHg 87%

    Tomorrow, 26 March, Tuesday

    Time Temperature Precipitation Wind Pressure Humidity
    00:00 -4°C° 0 mm 6 mps 754 mmHg 88%
    01:00 -4°C° 0 mm 5 mps 754 mmHg 88%
    02:00 -4°C° 0 mm 5 mps 755 mmHg 89%
    03:00 -4°C° 0 mm 4 mps 756 mmHg 89%
    04:00 -4°C° 0 mm 4 mps 756 mmHg 90%
    05:00 -4°C° 0 mm 4 mps 757 mmHg 90%
    06:00 -5°C° 0 mm 4 mps 757 mmHg 91%
    07:00 -4°C° 0 mm 4 mps 758 mmHg 89%
    08:00 -3°C° 0 mm 4 mps 758 mmHg 87%
    09:00 -2°C° 0 mm 4 mps 759 mmHg 86%
    10:00 -2°C° 0 mm 4 mps 759 mmHg 86%
    11:00 -1°C° 0 mm 4 mps 759 mmHg 85%
    12:00 -1°C° 0 mm 4 mps 759 mmHg 85%
    13:00 -1°C° 0 mm 4 mps 759 mmHg 84%
    14:00 -1°C° 0 mm 4 mps 759 mmHg 84%
    15:00 0°C° 0 mm 4 mps 759 mmHg 83%
    16:00 -1°C° 0 mm 4 mps 759 mmHg 85%
    17:00 -2°C° 0 mm 4 mps 759 mmHg 86%
    18:00 -2°C° 0 mm 4 mps 758 mmHg 88%
    19:00 -2°C° 0.1 mm 5 mps 758 mmHg 86%
    20:00 -2°C° 0.1 mm 5 mps 758 mmHg 84%
    21:00 -2°C° 0.1 mm 6 mps 757 mmHg 83%
    22:00 -2°C° 0.5 mm 7 mps 757 mmHg 83%
    23:00 -1°C° 0.5 mm 7 mps 756 mmHg 83%

    Day after tomorrow, 27 March, Wednesday

    Time Temperature Precipitation Wind Pressure Humidity
    00:00 0°C° 0.5 mm 7 mps 756 mmHg 84%
    01:00 0°C° 0.6 mm 8 mps 756 mmHg 83%
    02:00 0°C° 0.6 mm 8 mps 755 mmHg 82%
    03:00 0°C° 0.6 mm 8 mps 755 mmHg 82%
    04:00 0°C° 0.7 mm 8 mps 755 mmHg 83%
    05:00 0°C° 0.7 mm 8 mps 755 mmHg 84%
    06:00 0°C° 0.7 mm 8 mps 755 mmHg 85%
    07:00 0°C° 0.8 mm 7 mps 755 mmHg 85%
    08:00 0°C° 0.8 mm 7 mps 755 mmHg 85%
    09:00 -1°C° 0.8 mm 7 mps 755 mmHg 85%
    10:00 -1°C° 0.7 mm 7 mps 756 mmHg 87%
    11:00 -1°C° 0.7 mm 7 mps 756 mmHg 89%
    12:00 -1°C° 0.7 mm 7 mps 756 mmHg 90%
    13:00 -1°C° 0.6 mm 6 mps 756 mmHg 92%
    14:00 0°C° 0.6 mm 5 mps 757 mmHg 94%
    15:00 0°C° 0.6 mm 5 mps 757 mmHg 96%
    16:00 -1°C° 0.1 mm 4 mps 757 mmHg 97%
    17:00 0°C° 0.1 mm 3 mps 757 mmHg 97%
    18:00 +1°C° 0.1 mm 2 mps 758 mmHg 97%
    19:00 +1°C° 0 mm 2 mps 758 mmHg 96%
    20:00 +1°C° 0 mm 2 mps 758 mmHg 96%
    21:00 +1°C° 0 mm 2 mps 758 mmHg 95%
    22:00 +2°C° 0 mm 1 mps 758 mmHg 95%
    23:00 +1°C° 0 mm 1 mps 758 mmHg 94%

    28 March, Thursday

    Time Temperature Precipitation Wind Pressure Humidity
    00:00 +1°C° 0 mm 1 mps 758 mmHg 93%
    01:00 0°C° 0 mm 1 mps 758 mmHg 93%
    02:00 0°C° 0 mm 1 mps 758 mmHg 93%
    03:00 -1°C° 0 mm 1 mps 758 mmHg 93%
    04:00 -1°C° 0 mm 1 mps 758 mmHg 92%
    05:00 -1°C° 0 mm 1 mps 758 mmHg 91%
    06:00 -1°C° 0 mm 1 mps 758 mmHg 90%
    07:00 -1°C° 0 mm 1 mps 758 mmHg 88%
    08:00 -2°C° 0 mm 2 mps 758 mmHg 86%
    09:00 -1°C° 0 mm 2 mps 758 mmHg 84%
    10:00 +1°C° 0 mm 2 mps 758 mmHg 81%
    11:00 +1°C° 0 mm 2 mps 758 mmHg 78%
    12:00 +2°C° 0 mm 2 mps 758 mmHg 75%
    13:00 +2°C° 0 mm 2 mps 758 mmHg 74%
    14:00 +2°C° 0 mm 2 mps 758 mmHg 73%
    15:00 +1°C° 0 mm 3 mps 757 mmHg 72%
    16:00 +1°C° 0 mm 3 mps 758 mmHg 76%
    17:00 0°C° 0 mm 3 mps 758 mmHg 80%
    18:00 -1°C° 0 mm 3 mps 758 mmHg 84%
    19:00 -1°C° 0 mm 3 mps 758 mmHg 86%
    20:00 -1°C° 0 mm 3 mps 758 mmHg 88%
    21:00 -1°C° 0 mm 3 mps 758 mmHg 89%
    22:00 -2°C° 0 mm 3 mps 758 mmHg 90%
    23:00 -2°C° 0 mm 3 mps 758 mmHg 91%

    29 March, Friday

    Time Temperature Precipitation Wind Pressure Humidity
    00:00 -2°C° 0 mm 3 mps 759 mmHg 92%
    01:00 -2°C° 0 mm 3 mps 759 mmHg 91%
    02:00 -2°C° 0 mm 4 mps 759 mmHg 91%
    03:00 -2°C° 0 mm 4 mps 759 mmHg 90%
    04:00 -3°C° 0 mm 4 mps 759 mmHg 89%
    05:00 -3°C° 0 mm 4 mps 760 mmHg 87%
    06:00 -3°C° 0 mm 4 mps 760 mmHg 86%
    07:00 -3°C° 0 mm 4 mps 760 mmHg 81%
    08:00 -3°C° 0 mm 4 mps 760 mmHg 77%
    09:00 -1°C° 0 mm 3 mps 760 mmHg 72%
    10:00 -1°C° 0 mm 4 mps 760 mmHg 70%
    11:00 -1°C° 0 mm 4 mps 760 mmHg 67%
    12:00 0°C° 0 mm 4 mps 760 mmHg 65%
    13:00 0°C° 0 mm 4 mps 759 mmHg 65%
    14:00 0°C° 0 mm 4 mps 759 mmHg 65%
    15:00 0°C° 0 mm 5 mps 758 mmHg 64%
    16:00 0°C° 0 mm 5 mps 758 mmHg 70%
    17:00 -1°C° 0 mm 4 mps 757 mmHg 76%
    18:00 -2°C° 0 mm 4 mps 757 mmHg 82%
    19:00 -2°C° 0.1 mm 4 mps 757 mmHg 84%
    20:00 -2°C° 0.1 mm 4 mps 757 mmHg 87%
    21:00 -3°C° 0.1 mm 4 mps 757 mmHg 90%
    22:00 -3°C° 0 mm 4 mps 757 mmHg 90%
    23:00 -3°C° 0 mm 4 mps 757 mmHg 91%

    30 March, Saturday

    Time Temperature Precipitation Wind Pressure Humidity
    00:00 -2°C° 0 mm 3 mps 757 mmHg 91%
    01:00 -2°C° 0 mm 3 mps 757 mmHg 91%
    02:00 -2°C° 0 mm 3 mps 757 mmHg 92%
    03:00 -2°C° 0 mm 2 mps 758 mmHg 92%
    04:00 -2°C° 0 mm 2 mps 758 mmHg 92%
    05:00 -2°C° 0 mm 2 mps 758 mmHg 92%
    06:00 -2°C° 0 mm 2 mps 759 mmHg 92%
    07:00 -1°C° 0 mm 2 mps 759 mmHg 89%
    08:00 -1°C° 0 mm 2 mps 760 mmHg 87%
    09:00 +1°C° 0 mm 2 mps 760 mmHg 85%
    10:00 +1°C° 0 mm 2 mps 760 mmHg 84%
    11:00 +2°C° 0 mm 2 mps 761 mmHg 82%
    12:00 +2°C° 0 mm 2 mps 761 mmHg 80%
    13:00 +2°C° 0 mm 2 mps 761 mmHg 80%
    14:00 +2°C° 0 mm 2 mps 761 mmHg 80%
    15:00 +3°C° 0 mm 2 mps 761 mmHg 80%
    16:00 +2°C° 0 mm 2 mps 761 mmHg 82%
    17:00 +1°C° 0 mm 2 mps 761 mmHg 85%
    18:00 +1°C° 0 mm 2 mps 761 mmHg 88%
    19:00 -1°C° 0 mm 2 mps 762 mmHg 90%
    20:00 -1°C° 0 mm 2 mps 762 mmHg 91%
    21:00 -2°C° 0 mm 2 mps 762 mmHg 92%
    22:00 -2°C° 0 mm 2 mps 762 mmHg 93%
    23:00 -2°C° 0 mm 2 mps 762 mmHg 93%
    Show more